OBJECT B, 66311

Orbit data source: Space-Track

You're viewing an Uncataloged Satellite

Recently launched and/or uncataloged satellites may have evolving metadata. Metadata may include but not limited to: Owner, Maufacturer, Bus, Motor, and Mission.

OBJECT B, 66311 is a satellite owned by ISRO (IN) in HEO that was launched on Sun, 02 Nov 2025 UTC launched from the Sirharikota (SRI). Unknown objects in Earth's orbit typically refer to objects detected orbiting the Earth but have not yet been identified or cataloged. These objects could be anything from previously untracked satellites, spent rocket stages, debris from satellite collisions, or even natural meteoroids temporarily captured by Earth's gravity.

Loading next visibility...
Identifier
66311, 2025-249B
Orbit
HEO
Country
Flag of ININ / IND
Related business
Manufacturer
ISRO
Mission
Spacecraft
Bus & Motor
C25, CE-20
Mass
4,400 kg wet, 4,400 kg dry
Launch date (UTC)
2025-11-02 (6 days ago)
Launch vehicle
Unknown
Launch site
Sirharikota (SRI)
Object type
Unknown
Shape & HBR
Unknown
Radar Cross Section
RCS unknown

Expand to show TLE details & history
Last TLE update: 5 days ago

TLE from 5 days ago
0 OBJECT B
1 66311U 25249B   25306.99298740  .00026741  14239-6  35583-3 0  9995
2 66311  21.3965 160.6225 6687806 178.2200 186.7171  3.12953676    34
Epoch: 2025-11-02T23:49Z
TLE epoch observation values (Epoch: 2025-11-02T23:49:54.111Z)
Latitude
-0.00001°
Longitude
120.6671°
Altitude
26,528.658 km
Speed
2.009 km/s
True Right ascension
10h 42m 34s
True Declination
0° 00' 00"
Sunlit
Object was in daylight at epoch
Visualization orbit readout
Latitude
Unknown
Longitude
Unknown
Altitude
Unknown
Speed
Unknown
Apparent Right ascension
Unknown
Apparent Declination
Unknown
Sunlit
N/A
Visualization observer readout
Local Sidereal Time
17:46:14
Azimuth
Unknown
Elevation
Unknown
Doppler factor
Unknown
Orbital elements
Apogee altitude
26,576.021 km
Perigee altitude
162.601 km
Semi-major axis
19,747.448 km
Eccentricity
0.66878
Inclination
21.3965°
RAAN
160.6225°
Arg. of periapsis
178.22°
True anomaly
181.79443°
Mean anomaly
186.7171°
Eccentric anomaly
184.02648°
Mean motion
0.78213 °/min
Orbital period
460.28 mins
BSTAR
0.00035583
Loading maneuver chart data...
Computing Atmospheric mass density...
Loading historical data...
Loading historical data...
Loading historical data...
Loading historical data...
Loading historical data...
Loading historical data...
Loading historical data...
Other satellites on launch #249 in the year 2025 (2025-11-02 UTC)

Documentation

Showing up to 5 results
|